Flag for U.S.A. Weather past 2 weeks in Jackson, Mississippi, U.S.A.

Now
84 °F

Sunny.


Feels Like: 90 °F
Forecast: 66 / 91 °F
Wind: 3 mph from North

Location: Hawkins Field

Current Time: Jul 24, 2014 at 8:40:28 PM

Latest Report: Jul 24, 2014 at 7:53 PM


Visibility: 10 mi

Pressure: 29.93 "Hg

Humidity: 67%

Dew point: 72 °F

Location of JacksonLocation

Historic Weather in Jackson — Graph

°F

Jackson temperature yesterday

Maximum temperature yesterday: 88 °F (at 3:53 PM)
Minimum temperature yesterday: 73 °F (at 4:53 AM)
Average temperature yesterday: 79 °F

Past Weeks' High & Low Weather Summary

 TemperatureHumidityPressure
High92 °F (Jul 12, 2:53 PM)91% (Jul 12, 12:53 AM)30.15 "Hg (Jul 12, 12:53 AM)
Low63 °F (Jul 16, 6:53 AM)40% (Jul 16, 3:53 PM)29.88 "Hg (Jul 15, 4:53 PM)
Average78 °F73%30.01 "Hg
* Reported Jul 9 6:53 PM — Jul 24 6:53 PM, Jackson, Weather by CustomWeather, © 2014

Note: Actual official high and low records may vary slightly from our data, if they occured in-between our weather recording intervals... More about our weather records

Advertising

Jackson weather history for previous 24 hours

 ConditionsComfort  
Time TempWeatherWind HumidityBarometerVisibility
6:53 PM
Jul 24
87 °FSunny.6 mph59%29.92 "Hg10 mi
5:53 PM88 °FPartly sunny.5 mph57%29.91 "Hg10 mi
4:53 PM90 °FPassing clouds.7 mph56%29.92 "Hg10 mi
3:53 PM90 °FPassing clouds.8 mph56%29.94 "Hg10 mi
2:53 PM90 °FScattered clouds.5 mph56%29.95 "Hg10 mi
1:53 PM90 °FScattered clouds.9 mph56%29.97 "Hg10 mi
12:53 PM88 °FPassing clouds.6 mph57%29.99 "Hg10 mi
11:53 AM85 °FBroken clouds.3 mph63%30.00 "Hg10 mi
11:00 AM84 °FScattered clouds.6 mph66%30.04 "Hg10 mi
9:53 AM83 °FSunny.5 mph70%30.00 "Hg10 mi
8:53 AM80 °FSunny.N/A76%30.00 "Hg10 mi
7:53 AM76 °FSunny.N/A85%30.00 "Hg10 mi
6:53 AM72 °FClear.N/A87%29.99 "Hg9 mi
5:53 AM72 °FClear.No wind87%29.97 "Hg10 mi
4:53 AM71 °FClear.No wind90%29.96 "Hg10 mi
3:53 AM72 °FClear.No wind87%29.95 "Hg10 mi
2:53 AM72 °FPassing clouds.No wind87%29.95 "Hg10 mi
1:53 AM73 °FPassing clouds.3 mph88%29.96 "Hg10 mi
12:53 AM73 °FClear.No wind88%29.95 "Hg10 mi
11:53 PM
Jul 23
73 °FClear.No wind84%29.97 "Hg10 mi
10:53 PM74 °FPassing clouds.No wind85%29.96 "Hg10 mi
9:53 PM74 °FPassing clouds.No wind82%29.97 "Hg10 mi
8:53 PM75 °FLight rain. Partly sunny.5 mph82%30.00 "Hg10 mi
Weather by CustomWeather, © 2014

See weather overviewHow to use our weather pages